Weather home | Your neighborhood | Marine | Radar | Hurricane | Almanac

Daily weather history


Statistical History for Friday, February 17, 2017

St. Petersburg Airport, FL


  Actual Average Record
Temperature
Mean Temperature -  
Max Temperature 72 °F 83 °F (1975)
Min Temperature 57 °F 35 °F (1958)
Degree Days
Heating Degree Days    
Growing Degree Days 10 (Base - )  
Moisture
Dew Point   
Average Humidity    
Maximum Humidity    
Minimum Humidity    
Precipitation
Precipitation - - ()
Wind
Wind Speed   
Max Wind Speed   
Max Gust Speed   
Visibility   
Events   
Averages and records for this station are not official NWS values.
Key: T is trace of precipitation, MM is missing value
Source: NWS Daily Summary
Seasonal Weather Averages
Time(EST)TemperatureDew PointHumidity Sea Level Pressure Visibility Wind DirectionWind SpeedGust SpeedPrecipitationEventsConditions
12:53 AM 57.9 °F 46.0 °F 65% 30.07 in 10.0 miles North 6.9 mph - N/A   Clear
1:53 AM 57.0 °F 46.9 °F 69% 30.07 in 10.0 miles North 4.6 mph - N/A   Clear
2:53 AM 48.0 °F 44.1 °F 86% 30.07 in 10.0 miles Calm Calm - N/A   Clear
3:53 AM 46.0 °F 43.0 °F 89% 30.06 in 10.0 miles South 3.5 mph - N/A   Clear
4:53 AM 48.0 °F 44.1 °F 86% 30.08 in 10.0 miles Calm Calm - N/A   Clear
5:53 AM 46.9 °F 45.0 °F 93% 30.10 in 10.0 miles Calm Calm - N/A   Clear
6:53 AM 55.0 °F 46.9 °F 74% 30.12 in 10.0 miles NE 5.8 mph - N/A   Clear
7:53 AM 57.0 °F 48.0 °F 72% 30.13 in 10.0 miles NE 6.9 mph - N/A   Clear
8:53 AM 60.1 °F 46.0 °F 60% 30.14 in 10.0 miles NE 6.9 mph - N/A   Clear
9:53 AM 62.1 °F 43.0 °F 50% 30.15 in 10.0 miles NE 4.6 mph - N/A   Clear
10:53 AM 64.0 °F 42.1 °F 45% 30.14 in 10.0 miles NE 5.8 mph - N/A   Clear
11:53 AM 68.0 °F 39.0 °F 35% 30.13 in 10.0 miles ENE 9.2 mph - N/A   Clear
12:53 PM 70.0 °F 37.9 °F 31% 30.11 in 10.0 miles Variable 6.9 mph - N/A   Clear
1:53 PM 72.0 °F 39.0 °F 30% 30.09 in 10.0 miles NE 8.1 mph - N/A   Clear
2:53 PM 72.0 °F 37.0 °F 28% 30.06 in 10.0 miles NNE 6.9 mph - N/A   Clear
3:53 PM 73.0 °F 37.0 °F 27% 30.04 in 10.0 miles North 6.9 mph - N/A   Clear
4:53 PM 70.0 °F 44.1 °F 39% 30.05 in 10.0 miles West 8.1 mph - N/A   Clear
5:53 PM 66.9 °F 44.1 °F 44% 30.05 in 10.0 miles WNW 6.9 mph - N/A   Clear
6:53 PM 61.0 °F 45.0 °F 56% 30.04 in 10.0 miles WNW 4.6 mph - N/A   Clear
7:53 PM 57.9 °F 45.0 °F 62% 30.06 in 10.0 miles WNW 3.5 mph - N/A   Clear
8:53 PM 57.0 °F 46.9 °F 69% 30.06 in 10.0 miles Calm Calm - N/A   Clear
9:53 PM 54.0 °F 46.0 °F 75% 30.06 in 10.0 miles Calm Calm - N/A   Clear
10:53 PM 54.0 °F 46.9 °F 77% 30.05 in 10.0 miles North 3.5 mph - N/A   Clear
11:53 PM 61.0 °F 50.0 °F 67% 30.05 in 10.0 miles NE 4.6 mph - N/A   Clear
ADVERTISEMENT
Enter city or zip code to search weather conditions:


  • 490 First Avenue South
  • St. Petersburg, FL 33701
  • 727-893-8111